| time (UTC) | temp C | wind direction | speed KPH | gust KPH | rain 1hr cm | rain 24hr cm | rain mn cm | humidity % | barometer mb |
| 20260831220633 | 33 | 189 | 9.7 | 19.3 | 0.00 | 0.00 | 0.00 | 22 | 1014.3 |
| 20260831220230 | 33 | 171 | 4.8 | 16.1 | 0.00 | 0.00 | 0.00 | 21 | 1014.3 |
| 20260831215828 | 34 | 195 | 14.5 | 14.5 | 0.00 | 0.00 | 0.00 | 22 | 1014.3 |
| 20260831215427 | 33 | 162 | 6.4 | 14.5 | 0.00 | 0.00 | 0.00 | 21 | 1014.3 |
| 20260831215026 | 33 | 157 | 4.8 | 12.9 | 0.00 | 0.00 | 0.00 | 22 | 1014.4 |
| 20260831214629 | 34 | 119 | 14.5 | 14.5 | 0.00 | 0.00 | 0.00 | 22 | 1014.4 |
| 20260831213822 | 33 | 155 | 4.8 | 17.7 | 0.00 | 0.00 | 0.00 | 22 | 1014.5 |
| 20260831212618 | 33 | 162 | 6.4 | 19.3 | 0.00 | 0.00 | 0.00 | 22 | 1014.6 |
| 20260831211816 | 34 | 127 | 9.7 | 17.7 | 0.00 | 0.00 | 0.00 | 22 | 1014.7 |
| 20260831211415 | 34 | 137 | 14.5 | 16.1 | 0.00 | 0.00 | 0.00 | 22 | 1014.7 |
| 20260831211013 | 34 | 148 | 6.4 | 17.7 | 0.00 | 0.00 | 0.00 | 22 | 1014.7 |
| 20260831210210 | 35 | 162 | 9.7 | 19.3 | 0.00 | 0.00 | 0.00 | 22 | 1014.8 |
| 20260831205809 | 35 | 186 | 11.3 | 17.7 | 0.00 | 0.00 | 0.00 | 23 | 1014.8 |
| 20260831205408 | 35 | 182 | 11.3 | 17.7 | 0.00 | 0.00 | 0.00 | 23 | 1014.8 |
| 20260831203803 | 35 | 173 | 9.7 | 17.7 | 0.00 | 0.00 | 0.00 | 23 | 1014.9 |
| 20260831203402 | 35 | 186 | 17.7 | 17.7 | 0.00 | 0.00 | 0.00 | 23 | 1014.9 |
| 20260831203000 | 35 | 190 | 9.7 | 20.9 | 0.00 | 0.00 | 0.00 | 23 | 1014.8 |
| 20260831202559 | 35 | 173 | 9.7 | 19.3 | 0.00 | 0.00 | 0.00 | 23 | 1014.9 |
| 20260831202157 | 35 | 163 | 4.8 | 14.5 | 0.00 | 0.00 | 0.00 | 23 | 1014.9 |
| 20260831200954 | 35 | 176 | 6.4 | 12.9 | 0.00 | 0.00 | 0.00 | 24 | 1014.9 |
| 20260831200553 | 35 | 164 | 11.3 | 14.5 | 0.00 | 0.00 | 0.00 | 24 | 1014.9 |
| 20260831200151 | 35 | 177 | 9.7 | 16.1 | 0.00 | 0.00 | 0.00 | 24 | 1014.9 |
| 20260831195749 | 35 | 192 | 12.9 | 14.5 | 0.00 | 0.00 | 0.00 | 24 | 1015.0 |
| 20260831195348 | 35 | 182 | 9.7 | 16.1 | 0.00 | 0.00 | 0.00 | 25 | 1015.0 |
| 20260831194948 | 35 | 166 | 8.0 | 16.1 | 0.00 | 0.00 | 0.00 | 25 | 1015.0 |
| 20260831194546 | 35 | 177 | 8.0 | 17.7 | 0.00 | 0.00 | 0.00 | 25 | 1015.1 |
| 20260831193342 | 33 | 117 | 14.5 | 16.1 | 0.00 | 0.00 | 0.00 | 26 | 1015.2 |
| 20260831192539 | 33 | 182 | 6.4 | 12.9 | 0.00 | 0.00 | 0.00 | 26 | 1015.4 |
| 20260831191737 | 33 | 132 | 12.9 | 14.5 | 0.00 | 0.00 | 0.00 | 27 | 1015.4 |
| 20260831191336 | 33 | 162 | 4.8 | 17.7 | 0.00 | 0.00 | 0.00 | 27 | 1015.4 |
| 20260831190934 | 34 | 182 | 4.8 | 11.3 | 0.00 | 0.00 | 0.00 | 27 | 1015.5 |
| 20260831190533 | 33 | 130 | 6.4 | 11.3 | 0.00 | 0.00 | 0.00 | 27 | 1015.4 |
| 20260831185330 | 32 | 135 | 6.4 | 9.7 | 0.00 | 0.00 | 0.00 | 28 | 1015.4 |
| 20260831184526 | 32 | 130 | 11.3 | 12.9 | 0.00 | 0.00 | 0.00 | 28 | 1015.4 |
| 20260831184125 | 32 | 144 | 6.4 | 11.3 | 0.00 | 0.00 | 0.00 | 28 | 1015.5 |
| 20260831183724 | 32 | 227 | 8.0 | 9.7 | 0.00 | 0.00 | 0.00 | 28 | 1015.5 |
| 20260831183323 | 32 | 196 | 1.6 | 9.7 | 0.00 | 0.00 | 0.00 | 28 | 1015.6 |
| 20260831182922 | 31 | 170 | 4.8 | 11.3 | 0.00 | 0.00 | 0.00 | 28 | 1015.6 |
| 20260831182521 | 30 | 208 | 0.0 | 14.5 | 0.00 | 0.00 | 0.00 | 29 | 1015.6 |
| 20260831181723 | 31 | 144 | 12.9 | 12.9 | 0.00 | 0.00 | 0.00 | 29 | 1015.7 |
| 20260831181316 | 30 | 135 | 14.5 | 16.1 | 0.00 | 0.00 | 0.00 | 29 | 1015.6 |
| 20260831180915 | 31 | 123 | 14.5 | 16.1 | 0.00 | 0.00 | 0.00 | 29 | 1015.6 |
| 20260831180514 | 31 | 186 | 6.4 | 12.9 | 0.00 | 0.00 | 0.00 | 29 | 1015.7 |
| 20260831180114 | 30 | 180 | 11.3 | 14.5 | 0.00 | 0.00 | 0.00 | 29 | 1015.7 |
| 20260831175713 | 30 | 50 | 6.4 | 17.7 | 0.00 | 0.00 | 0.00 | 30 | 1015.7 |
| 20260831175310 | 31 | 135 | 14.5 | 14.5 | 0.00 | 0.00 | 0.00 | 30 | 1015.7 |
| 20260831174909 | 31 | 175 | 6.4 | 11.3 | 0.00 | 0.00 | 0.00 | 30 | 1015.7 |
| 20260831174508 | 31 | 67 | 1.6 | 14.5 | 0.00 | 0.00 | 0.00 | 30 | 1015.7 |
| 20260831174107 | 30 | 135 | 8.0 | 11.3 | 0.00 | 0.00 | 0.00 | 30 | 1015.7 |
| 20260831173708 | 30 | 105 | 4.8 | 11.3 | 0.00 | 0.00 | 0.00 | 31 | 1015.7 |
| 20260831173706 | 30 | 105 | 4.8 | 11.3 | 0.00 | 0.00 | 0.00 | 31 | 1015.7 |
| 20260831173303 | 31 | 117 | 11.3 | 11.3 | 0.00 | 0.00 | 0.00 | 31 | 1015.7 |
| 20260831172903 | 30 | 195 | 1.6 | 9.7 | 0.00 | 0.00 | 0.00 | 31 | 1015.8 |
| 20260831172501 | 30 | 126 | 9.7 | 14.5 | 0.00 | 0.00 | 0.00 | 32 | 1015.6 |
| 20260831172100 | 30 | 185 | 8.0 | 8.0 | 0.00 | 0.00 | 0.00 | 33 | 1015.7 |
| 20260831171659 | 30 | 137 | 6.4 | 11.3 | 0.00 | 0.00 | 0.00 | 33 | 1015.7 |
| 20260831171257 | 29 | 191 | 1.6 | 9.7 | 0.00 | 0.00 | 0.00 | 33 | 1015.6 |
| 20260831170855 | 28 | 117 | 9.7 | 11.3 | 0.00 | 0.00 | 0.00 | 33 | 1015.7 |
| 20260831170454 | 28 | 119 | 9.7 | 11.3 | 0.00 | 0.00 | 0.00 | 34 | 1015.7 |
| 20260831170054 | 29 | 148 | 8.0 | 14.5 | 0.00 | 0.00 | 0.00 | 34 | 1015.7 |
| 20260831165251 | 28 | 56 | 0.0 | 11.3 | 0.00 | 0.00 | 0.00 | 35 | 1015.6 |
| 20260831164850 | 28 | 135 | 11.3 | 11.3 | 0.00 | 0.00 | 0.00 | 36 | 1015.5 |
| 20260831164448 | 28 | 135 | 11.3 | 11.3 | 0.00 | 0.00 | 0.00 | 36 | 1015.5 |
| 20260831164048 | 28 | 101 | 3.2 | 6.4 | 0.00 | 0.00 | 0.00 | 37 | 1015.5 |
| 20260831163646 | 27 | 301 | 1.6 | 11.3 | 0.00 | 0.00 | 0.00 | 37 | 1015.5 |
| 20260831162843 | 27 | 117 | 9.7 | 14.5 | 0.00 | 0.00 | 0.00 | 38 | 1015.4 |
| 20260831161639 | 27 | 308 | 1.6 | 16.1 | 0.00 | 0.00 | 0.00 | 40 | 1015.5 |
| 20260831161238 | 27 | 109 | 1.6 | 8.0 | 0.00 | 0.00 | 0.00 | 40 | 1015.5 |
| 20260831160837 | 27 | 135 | 8.0 | 8.0 | 0.00 | 0.00 | 0.00 | 41 | 1015.5 |
| 20260831160436 | 26 | 96 | 6.4 | 6.4 | 0.00 | 0.00 | 0.00 | 42 | 1015.4 |
| 20260831160034 | 25 | 51 | 3.2 | 9.7 | 0.00 | 0.00 | 0.00 | 42 | 1015.4 |
| 20260831155632 | 25 | 95 | 1.6 | 9.7 | 0.00 | 0.00 | 0.00 | 42 | 1015.5 |
| 20260831154429 | 25 | 37 | 1.6 | 11.3 | 0.00 | 0.00 | 0.00 | 43 | 1015.4 |
| 20260831153627 | 24 | 121 | 1.6 | 6.4 | 0.00 | 0.00 | 0.00 | 44 | 1015.3 |
| 20260831153225 | 24 | 87 | 8.0 | 9.7 | 0.00 | 0.00 | 0.00 | 45 | 1015.4 |
| 20260831152824 | 24 | 74 | 4.8 | 6.4 | 0.00 | 0.00 | 0.00 | 44 | 1015.3 |
| 20260831151620 | 23 | 135 | 8.0 | 9.7 | 0.00 | 0.00 | 0.00 | 45 | 1015.2 |
| 20260831151219 | 23 | 157 | 1.6 | 4.8 | 0.00 | 0.00 | 0.00 | 46 | 1015.2 |
| 20260831150817 | 23 | 83 | 4.8 | 4.8 | 0.00 | 0.00 | 0.00 | 46 | 1015.3 |
| 20260831150416 | 23 | 56 | 0.0 | 1.6 | 0.00 | 0.00 | 0.00 | 46 | 1015.2 |
| 20260831145614 | 21 | 230 | 0.0 | 0.0 | 0.00 | 0.00 | 0.00 | 47 | 1015.3 |
| 20260831145213 | 21 | 40 | 0.0 | 1.6 | 0.00 | 0.00 | 0.00 | 48 | 1015.3 |
| 20260831144811 | 20 | 45 | 0.0 | 0.0 | 0.00 | 0.00 | 0.00 | 48 | 1015.2 |
| 20260831144409 | 20 | 40 | 0.0 | 0.0 | 0.00 | 0.00 | 0.00 | 48 | 1015.1 |
| 20260831143607 | 19 | 38 | 0.0 | 0.0 | 0.00 | 0.00 | 0.00 | 49 | 1015.1 |
| 20260831142805 | 18 | 42 | 0.0 | 1.6 | 0.00 | 0.00 | 0.00 | 49 | 1015.1 |
| 20260831142403 | 18 | 344 | 0.0 | 1.6 | 0.00 | 0.00 | 0.00 | 49 | 1014.8 |
| 20260831142001 | 18 | 42 | 1.6 | 1.6 | 0.00 | 0.00 | 0.00 | 49 | 1014.9 |
| 20260831141600 | 17 | 301 | 0.0 | 0.0 | 0.00 | 0.00 | 0.00 | 50 | 1014.8 |
| 20260831140758 | 17 | 306 | 0.0 | 0.0 | 0.00 | 0.00 | 0.00 | 50 | 1014.8 |
| 20260831135955 | 16 | 301 | 0.0 | 0.0 | 0.00 | 0.00 | 0.00 | 50 | 1014.7 |
| 20260831135554 | 16 | 308 | 0.0 | 0.0 | 0.00 | 0.00 | 0.00 | 50 | 1014.5 |
| 20260831135153 | 16 | 301 | 0.0 | 0.0 | 0.00 | 0.00 | 0.00 | 50 | 1014.5 |
| 20260831134752 | 16 | 227 | 0.0 | 0.0 | 0.00 | 0.00 | 0.00 | 49 | 1014.4 |
| 20260831134350 | 16 | 236 | 0.0 | 0.0 | 0.00 | 0.00 | 0.00 | 49 | 1014.4 |
| 20260831133146 | 16 | 274 | 0.0 | 0.0 | 0.00 | 0.00 | 0.00 | 49 | 1014.3 |
| 20260831132344 | 16 | 270 | 0.0 | 1.6 | 0.00 | 0.00 | 0.00 | 49 | 1014.3 |
| 20260831131943 | 16 | 283 | 1.6 | 1.6 | 0.00 | 0.00 | 0.00 | 49 | 1014.3 |
| 20260831131542 | 16 | 330 | 0.0 | 0.0 | 0.00 | 0.00 | 0.00 | 49 | 1014.4 |
| 20260831131140 | 16 | 335 | 0.0 | 0.0 | 0.00 | 0.00 | 0.00 | 49 | 1014.4 |
| 20260831130738 | 16 | 308 | 0.0 | 1.6 | 0.00 | 0.00 | 0.00 | 48 | 1014.3 |
| 20260831130337 | 16 | 283 | 1.6 | 1.6 | 0.00 | 0.00 | 0.00 | 48 | 1014.3 |
| 20260831125936 | 16 | 310 | 0.0 | 0.0 | 0.00 | 0.00 | 0.00 | 48 | 1014.3 |
| 20260831125134 | 16 | 297 | 0.0 | 0.0 | 0.00 | 0.00 | 0.00 | 48 | 1014.2 |
| 20260831124733 | 16 | 308 | 0.0 | 0.0 | 0.00 | 0.00 | 0.00 | 48 | 1014.2 |
| 20260831124331 | 16 | 279 | 0.0 | 1.6 | 0.00 | 0.00 | 0.00 | 48 | 1014.2 |
| 20260831123127 | 17 | 308 | 0.0 | 0.0 | 0.00 | 0.00 | 0.00 | 48 | 1014.2 |
| 20260831122726 | 17 | 303 | 0.0 | 0.0 | 0.00 | 0.00 | 0.00 | 48 | 1014.1 |
| 20260831122325 | 17 | 233 | 0.0 | 0.0 | 0.00 | 0.00 | 0.00 | 47 | 1014.2 |
| 20260831121923 | 17 | 235 | 0.0 | 0.0 | 0.00 | 0.00 | 0.00 | 47 | 1014.1 |
| 20260831121522 | 17 | 333 | 0.0 | 0.0 | 0.00 | 0.00 | 0.00 | 47 | 1014.2 |
| 20260831121121 | 17 | 328 | 0.0 | 0.0 | 0.00 | 0.00 | 0.00 | 47 | 1014.1 |
| 20260831120720 | 17 | 288 | 0.0 | 0.0 | 0.00 | 0.00 | 0.00 | 47 | 1014.2 |
| 20260831120318 | 17 | 279 | 0.0 | 0.0 | 0.00 | 0.00 | 0.00 | 47 | 1014.1 |
| 20260831115918 | 17 | 283 | 0.0 | 0.0 | 0.00 | 0.00 | 0.00 | 47 | 1014.1 |
| 20260831115515 | 17 | 297 | 0.0 | 0.0 | 0.00 | 0.00 | 0.00 | 47 | 1014.1 |
| 20260831113911 | 17 | 270 | 0.0 | 0.0 | 0.00 | 0.00 | 0.00 | 46 | 1014.1 |
| 20260831113509 | 18 | 270 | 0.0 | 0.0 | 0.00 | 0.00 | 0.00 | 46 | 1014.1 |
| 20260831113108 | 18 | 237 | 0.0 | 1.6 | 0.00 | 0.00 | 0.00 | 46 | 1014.1 |
| 20260831112706 | 18 | 283 | 1.6 | 1.6 | 0.00 | 0.00 | 0.00 | 46 | 1014.1 |
| 20260831112307 | 18 | 303 | 0.0 | 0.0 | 0.00 | 0.00 | 0.00 | 46 | 1014.2 |
| 20260831111102 | 18 | 231 | 0.0 | 0.0 | 0.00 | 0.00 | 0.00 | 45 | 1014.2 |
| 20260831110259 | 18 | 333 | 0.0 | 1.6 | 0.00 | 0.00 | 0.00 | 45 | 1014.3 |
| 20260831105900 | 18 | 344 | 1.6 | 1.6 | 0.00 | 0.00 | 0.00 | 45 | 1014.3 |
| 20260831105456 | 18 | 328 | 0.0 | 0.0 | 0.00 | 0.00 | 0.00 | 45 | 1014.3 |
| 20260831105055 | 18 | 42 | 0.0 | 1.6 | 0.00 | 0.00 | 0.00 | 45 | 1014.3 |
| 20260831104656 | -17 | 321 | 0.0 | 3.2 | 0.00 | 0.00 | 0.00 | 45 | 1014.3 |
| 20260831104654 | 18 | 321 | 0.0 | 3.2 | 0.00 | 0.00 | 0.00 | 45 | 1014.3 |
| 20260831104252 | 18 | 10 | 1.6 | 3.2 | 0.00 | 0.00 | 0.00 | 45 | 1014.3 |
| 20260831103852 | 352 | 40 | 3.2 | 3.2 | 0.00 | 0.00 | 0.00 | 45 | 101.4 |
| 20260831103450 | 18 | 189 | 0.0 | 3.2 | 0.00 | 0.00 | 0.00 | 45 | 1014.2 |
| 20260831103050 | 18 | 135 | 3.2 | 3.2 | 0.00 | 0.00 | 0.00 | 45 | 1014.3 |
| 20260831102246 | 18 | 135 | 1.6 | 3.2 | 0.00 | 0.00 | 0.00 | 45 | 1014.2 |
| 20260831101845 | 19 | 121 | 3.2 | 3.2 | 0.00 | 0.00 | 0.00 | 45 | 1014.2 |
| 20260831101042 | 19 | 135 | 3.2 | 3.2 | 0.00 | 0.00 | 0.00 | 44 | 1014.4 |
| 20260831100641 | 19 | 139 | 3.2 | 3.2 | 0.00 | 0.00 | 0.00 | 44 | 1014.4 |
| 20260831100240 | 19 | 135 | 3.2 | 3.2 | 0.00 | 0.00 | 0.00 | 44 | 1014.3 |
| 20260831095437 | 19 | 182 | 1.6 | 3.2 | 0.00 | 0.00 | 0.00 | 44 | 1014.2 |
| 20260831095036 | 19 | 148 | 1.6 | 3.2 | 0.00 | 0.00 | 0.00 | 44 | 1014.2 |
| 20260831094635 | 19 | 173 | 1.6 | 3.2 | 0.00 | 0.00 | 0.00 | 44 | 1014.3 |
| 20260831094233 | 19 | 135 | 1.6 | 1.6 | 0.00 | 0.00 | 0.00 | 44 | 1014.3 |
| 20260831093832 | 19 | 135 | 0.0 | 0.0 | 0.00 | 0.00 | 0.00 | 44 | 1014.3 |
| 20260831093431 | 19 | 135 | 0.0 | 1.6 | 0.00 | 0.00 | 0.00 | 44 | 1014.3 |
| 20260831093029 | 19 | 135 | 0.0 | 1.6 | 0.00 | 0.00 | 0.00 | 44 | 1014.2 |
| 20260831092632 | 19 | 137 | 1.6 | 3.2 | 0.00 | 0.00 | 0.00 | 44 | 1014.2 |
| 20260831091826 | 19 | 135 | 3.2 | 6.4 | 0.00 | 0.00 | 0.00 | 44 | 1014.1 |
| 20260831090221 | 19 | 177 | 1.6 | 4.8 | 0.00 | 0.00 | 0.00 | 43 | 1014.1 |
| 20260831085819 | 19 | 135 | 0.0 | 3.2 | 0.00 | 0.00 | 0.00 | 43 | 1014.1 |
| 20260831085418 | 19 | 189 | 1.6 | 4.8 | 0.00 | 0.00 | 0.00 | 43 | 1014.1 |
| 20260831084616 | 20 | 135 | 3.2 | 4.8 | 0.00 | 0.00 | 0.00 | 43 | 1014.2 |
| 20260831083812 | 20 | 186 | 0.0 | 3.2 | 0.00 | 0.00 | 0.00 | 43 | 1014.2 |
| 20260831083644 | 20 | 175 | 3.2 | 4.8 | 0.00 | 0.00 | 0.00 | 43 | 1014.2 |
| 20260831083414 | 20 | 175 | 3.2 | 4.8 | 0.00 | 0.00 | 0.00 | 43 | 1014.2 |
| 20260831082609 | 20 | 191 | 0.0 | 3.2 | 0.00 | 0.00 | 0.00 | 42 | 1014.2 |
| 20260831082208 | 20 | 137 | 3.2 | 4.8 | 0.00 | 0.00 | 0.00 | 42 | 1014.1 |
| 20260831081806 | 20 | 135 | 3.2 | 3.2 | 0.00 | 0.00 | 0.00 | 42 | 1014.1 |
| 20260831081441 | 20 | 157 | 1.6 | 4.8 | 0.00 | 0.00 | 0.00 | 42 | 1014.0 |
| 20260831081406 | 20 | 157 | 1.6 | 4.8 | 0.00 | 0.00 | 0.00 | 42 | 1014.0 |
| 20260831080603 | 20 | 135 | 3.2 | 3.2 | 0.00 | 0.00 | 0.00 | 42 | 1014.0 |
| 20260831080201 | 20 | 139 | 3.2 | 3.2 | 0.00 | 0.00 | 0.00 | 42 | 1014.0 |
| 20260831075800 | 20 | 135 | 3.2 | 3.2 | 0.00 | 0.00 | 0.00 | 42 | 1013.9 |
| 20260831075358 | 20 | 114 | 1.6 | 3.2 | 0.00 | 0.00 | 0.00 | 42 | 1013.9 |
| 20260831074957 | 20 | 135 | 1.6 | 3.2 | 0.00 | 0.00 | 0.00 | 42 | 1014.0 |
| 20260831074557 | 20 | 135 | 1.6 | 3.2 | 0.00 | 0.00 | 0.00 | 42 | 1013.9 |
| 20260831074155 | 20 | 135 | 1.6 | 3.2 | 0.00 | 0.00 | 0.00 | 42 | 1014.0 |
| 20260831073754 | 20 | 135 | 3.2 | 4.8 | 0.00 | 0.00 | 0.00 | 41 | 1013.8 |
| 20260831073353 | 20 | 117 | 4.8 | 4.8 | 0.00 | 0.00 | 0.00 | 41 | 1013.8 |
| 20260831072951 | 20 | 137 | 3.2 | 4.8 | 0.00 | 0.00 | 0.00 | 41 | 1013.7 |
| 20260831072549 | 20 | 135 | 4.8 | 6.4 | 0.00 | 0.00 | 0.00 | 41 | 1013.7 |
| 20260831072148 | 20 | 126 | 4.8 | 4.8 | 0.00 | 0.00 | 0.00 | 41 | 1013.7 |
| 20260831071747 | 20 | 135 | 1.6 | 3.2 | 0.00 | 0.00 | 0.00 | 41 | 1013.6 |
| 20260831071346 | 20 | 114 | 1.6 | 4.8 | 0.00 | 0.00 | 0.00 | 41 | 1013.7 |
| 20260831070946 | 20 | 137 | 1.6 | 4.8 | 0.00 | 0.00 | 0.00 | 41 | 1013.7 |
| 20260831070543 | 21 | 135 | 4.8 | 4.8 | 0.00 | 0.00 | 0.00 | 41 | 1013.7 |
| 20260831070142 | 21 | 130 | 3.2 | 4.8 | 0.00 | 0.00 | 0.00 | 40 | 1013.7 |
| 20260831065742 | 21 | 135 | 4.8 | 4.8 | 0.00 | 0.00 | 0.00 | 40 | 1013.7 |
| 20260831065340 | 21 | 135 | 3.2 | 4.8 | 0.00 | 0.00 | 0.00 | 40 | 1013.7 |
| 20260831064538 | 21 | 110 | 3.2 | 3.2 | 0.00 | 0.00 | 0.00 | 40 | 1013.8 |
| 20260831064135 | 21 | 60 | 1.6 | 3.2 | 0.00 | 0.00 | 0.00 | 40 | 1013.7 |
| 20260831063333 | 21 | 45 | 0.0 | 1.6 | 0.00 | 0.00 | 0.00 | 40 | 1013.7 |
| 20260831062932 | 21 | 40 | 0.0 | 1.6 | 0.00 | 0.00 | 0.00 | 40 | 1013.8 |
| 20260831062531 | 21 | 135 | 1.6 | 3.2 | 0.00 | 0.00 | 0.00 | 40 | 1013.7 |
| 20260831062129 | 21 | 137 | 1.6 | 3.2 | 0.00 | 0.00 | 0.00 | 39 | 1013.7 |
| 20260831061727 | 21 | 171 | 1.6 | 3.2 | 0.00 | 0.00 | 0.00 | 39 | 1013.8 |
| 20260831061326 | 22 | 135 | 3.2 | 3.2 | 0.00 | 0.00 | 0.00 | 39 | 1013.8 |
| 20260831060928 | 22 | 135 | 1.6 | 1.6 | 0.00 | 0.00 | 0.00 | 39 | 1013.8 |
| 20260831060124 | 22 | 135 | 1.6 | 1.6 | 0.00 | 0.00 | 0.00 | 39 | 1013.8 |
| 20260831055722 | 22 | 135 | 3.2 | 3.2 | 0.00 | 0.00 | 0.00 | 39 | 1013.7 |
| 20260831055323 | 22 | 135 | 1.6 | 3.2 | 0.00 | 0.00 | 0.00 | 39 | 1013.8 |
| 20260831054919 | 22 | 121 | 1.6 | 1.6 | 0.00 | 0.00 | 0.00 | 38 | 1013.7 |
| 20260831054116 | 22 | 135 | 3.2 | 3.2 | 0.00 | 0.00 | 0.00 | 38 | 1013.7 |
| 20260831053715 | 22 | 135 | 1.6 | 1.6 | 0.00 | 0.00 | 0.00 | 38 | 1013.7 |
| 20260831053314 | 22 | 159 | 0.0 | 3.2 | 0.00 | 0.00 | 0.00 | 38 | 1013.7 |
| 20260831052110 | 22 | 135 | 1.6 | 3.2 | 0.00 | 0.00 | 0.00 | 38 | 1013.7 |
| 20260831051709 | 22 | 135 | 3.2 | 4.8 | 0.00 | 0.00 | 0.00 | 37 | 1013.7 |
| 20260831050906 | 22 | 135 | 4.8 | 4.8 | 0.00 | 0.00 | 0.00 | 37 | 1013.6 |
| 20260831050103 | 22 | 135 | 3.2 | 4.8 | 0.00 | 0.00 | 0.00 | 37 | 1013.6 |
| 20260831045703 | 23 | 135 | 4.8 | 6.4 | 0.00 | 0.00 | 0.00 | 37 | 1013.7 |
| 20260831044900 | 23 | 78 | 4.8 | 4.8 | 0.00 | 0.00 | 0.00 | 36 | 1013.6 |
| 20260831044459 | 23 | 76 | 3.2 | 3.2 | 0.00 | 0.00 | 0.00 | 36 | 1013.5 |
| 20260831044057 | 23 | 49 | 1.6 | 3.2 | 0.00 | 0.00 | 0.00 | 36 | 1013.5 |
| 20260831043655 | 23 | 38 | 3.2 | 3.2 | 0.00 | 0.00 | 0.00 | 36 | 1013.4 |
| 20260831043254 | 23 | 42 | 1.6 | 1.6 | 0.00 | 0.00 | 0.00 | 36 | 1013.5 |
| 20260831042853 | 23 | 38 | 1.6 | 1.6 | 0.00 | 0.00 | 0.00 | 36 | 1013.4 |
| 20260831042452 | 23 | 60 | 1.6 | 1.6 | 0.00 | 0.00 | 0.00 | 36 | 1013.5 |
| 20260831042052 | -17 | 83 | 0.0 | 1.6 | 1.91 | 0.00 | 1.27 | 35 | 0.1 |
| 20260831041649 | 23 | 99 | 1.6 | 3.2 | 0.00 | 0.00 | 0.00 | 35 | 1013.3 |
| 20260831041248 | 23 | 112 | 3.2 | 3.2 | 0.00 | 0.00 | 0.00 | 35 | 1013.3 |
| 20260831040847 | 24 | 135 | 3.2 | 3.2 | 0.00 | 0.00 | 0.00 | 35 | 1013.3 |
| 20260831040447 | 24 | 137 | 3.2 | 3.2 | 0.00 | 0.00 | 0.00 | 35 | 1013.2 |
| 20260831040045 | 24 | 130 | 1.6 | 4.8 | 0.00 | 0.00 | 0.00 | 35 | 1013.3 |
| 20260831035643 | 24 | 123 | 4.8 | 4.8 | 0.00 | 0.00 | 0.00 | 35 | 1013.1 |
| 20260831035241 | 24 | 76 | 3.2 | 3.2 | 0.00 | 0.00 | 0.00 | 34 | 1013.1 |
| 20260831034840 | 24 | 135 | 3.2 | 4.8 | 0.00 | 0.00 | 0.00 | 34 | 1013.0 |
| 20260831034038 | 24 | 78 | 4.8 | 6.4 | 0.00 | 0.00 | 0.00 | 34 | 1012.8 |
| 20260831033235 | 24 | 130 | 6.4 | 6.4 | 0.00 | 0.00 | 0.00 | 34 | 1012.8 |
| 20260831032438 | 24 | 54 | 1.6 | 4.8 | 0.00 | 0.00 | 0.00 | 33 | 1012.6 |
| 20260831032031 | 24 | 137 | 3.2 | 3.2 | 0.00 | 0.00 | 0.00 | 33 | 1012.5 |
| 20260831031630 | 24 | 146 | 3.2 | 6.4 | 0.00 | 0.00 | 0.00 | 33 | 1012.5 |
| 20260831031230 | 24 | 153 | 4.8 | 4.8 | 0.00 | 0.00 | 0.00 | 33 | 1012.4 |
| 20260831030828 | 24 | 135 | 6.4 | 8.0 | 0.00 | 0.00 | 0.00 | 33 | 1012.4 |
| 20260831030427 | 25 | 137 | 6.4 | 9.7 | 0.00 | 0.00 | 0.00 | 32 | 1012.4 |
| 20260831030026 | 25 | 135 | 9.7 | 9.7 | 0.00 | 0.00 | 0.00 | 32 | 1012.3 |
| 20260831025222 | 25 | 135 | 6.4 | 8.0 | 0.00 | 0.00 | 0.00 | 32 | 1012.3 |
| 20260831024821 | 25 | 139 | 8.0 | 8.0 | 0.00 | 0.00 | 0.00 | 31 | 1012.2 |
| 20260831024423 | 25 | 150 | 6.4 | 9.7 | 0.00 | 0.00 | 0.00 | 31 | 1012.2 |
| 20260831024018 | 25 | 137 | 8.0 | 9.7 | 0.00 | 0.00 | 0.00 | 30 | 1012.3 |
| 20260831023216 | 26 | 128 | 9.7 | 14.5 | 0.00 | 0.00 | 0.00 | 30 | 1012.1 |
| 20260831022815 | 26 | 137 | 11.3 | 14.5 | 0.00 | 0.00 | 0.00 | 29 | 1012.0 |
| 20260831022415 | 26 | 139 | 8.0 | 14.5 | 0.00 | 0.00 | 0.00 | 29 | 1011.9 |
| 20260831022012 | 26 | 135 | 8.0 | 9.7 | 0.00 | 0.00 | 0.00 | 29 | 1012.0 |
| 20260831021611 | 26 | 157 | 6.4 | 12.9 | 0.00 | 0.00 | 0.00 | 28 | 1011.8 |
| 20260831020811 | 27 | 135 | 11.3 | 11.3 | 0.00 | 0.00 | 0.00 | 28 | 1011.8 |
| 20260831015604 | 27 | 137 | 11.3 | 11.3 | 0.00 | 0.00 | 0.00 | 27 | 1011.8 |
| 20260831015206 | 27 | 141 | 12.9 | 14.5 | 0.00 | 0.00 | 0.00 | 26 | 1011.8 |
| 20260831014801 | 28 | 130 | 14.5 | 14.5 | 0.00 | 0.00 | 0.00 | 25 | 1011.8 |
| 20260831014400 | 28 | 119 | 8.0 | 11.3 | 0.00 | 0.00 | 0.00 | 25 | 1011.8 |
| 20260831013959 | 28 | 114 | 9.7 | 14.5 | 0.00 | 0.00 | 0.00 | 25 | 1011.8 |
| 20260831013559 | 28 | 135 | 9.7 | 14.5 | 0.00 | 0.00 | 0.00 | 25 | 1011.9 |
| 20260831012755 | 29 | 135 | 14.5 | 16.1 | 0.00 | 0.00 | 0.00 | 24 | 1011.9 |
| 20260831012354 | 30 | 135 | 14.5 | 14.5 | 0.00 | 0.00 | 0.00 | 24 | 1011.8 |
| 20260831011150 | 31 | 117 | 11.3 | 16.1 | 0.00 | 0.00 | 0.00 | 23 | 1011.7 |
| 20260831010751 | 31 | 160 | 4.8 | 8.0 | 0.00 | 0.00 | 0.00 | 23 | 1011.7 |
| 20260831010347 | 31 | 139 | 4.8 | 14.5 | 0.00 | 0.00 | 0.00 | 23 | 1011.8 |
| 20260831005946 | 31 | 146 | 9.7 | 12.9 | 0.00 | 0.00 | 0.00 | 23 | 1011.8 |
| 20260831005546 | 31 | 135 | 11.3 | 19.3 | 0.00 | 0.00 | 0.00 | 23 | 1011.9 |
| 20260831005144 | 31 | 150 | 11.3 | 17.7 | 0.00 | 0.00 | 0.00 | 22 | 1011.9 |
| 20260831004744 | 32 | 144 | 4.8 | 11.3 | 0.00 | 0.00 | 0.00 | 22 | 1011.9 |
| 20260831004341 | 32 | 135 | 8.0 | 14.5 | 0.00 | 0.00 | 0.00 | 22 | 1011.8 |
| 20260831003939 | 32 | 144 | 14.5 | 14.5 | 0.00 | 0.00 | 0.00 | 22 | 1011.9 |
| 20260831003137 | 32 | 150 | 11.3 | 11.3 | 0.00 | 0.00 | 0.00 | 21 | 1011.8 |
| 20260831002736 | 32 | 164 | 6.4 | 14.5 | 0.00 | 0.00 | 0.00 | 21 | 1011.8 |
| 20260831002335 | 32 | 144 | 9.7 | 16.1 | 0.00 | 0.00 | 0.00 | 20 | 1011.7 |
| 20260831001935 | 33 | 141 | 8.0 | 11.3 | 0.00 | 0.00 | 0.00 | 20 | 1011.8 |
| 20260831001532 | 33 | 180 | 12.9 | 14.5 | 0.00 | 0.00 | 0.00 | 20 | 1011.8 |
| 20260831001131 | 33 | 177 | 9.7 | 9.7 | 0.00 | 0.00 | 0.00 | 20 | 1011.7 |
| 20260831000730 | 33 | 171 | 6.4 | 11.3 | 0.00 | 0.00 | 0.00 | 20 | 1011.8 |
| 20260831000329 | 33 | 182 | 6.4 | 11.3 | 0.00 | 0.00 | 0.00 | 20 | 1011.8 |
| 20260830235927 | 33 | 155 | 9.7 | 14.5 | 0.00 | 0.00 | 0.00 | 20 | 1011.8 |
| 20260830235529 | 33 | 177 | 6.4 | 12.9 | 0.00 | 0.00 | 0.00 | 20 | 1011.8 |
| 20260830234322 | 35 | 165 | 4.8 | 12.9 | 0.00 | 0.00 | 0.00 | 19 | 1011.8 |
| 20260830233921 | 36 | 155 | 9.7 | 14.5 | 0.00 | 0.00 | 0.00 | 19 | 1011.8 |
| 20260830233119 | 36 | 162 | 9.7 | 12.9 | 0.00 | 0.00 | 0.00 | 20 | 1011.8 |
| 20260830232716 | 37 | 195 | 6.4 | 14.5 | 0.00 | 0.00 | 0.00 | 20 | 1012.0 |
| 20260830232315 | 37 | 184 | 11.3 | 12.9 | 0.00 | 0.00 | 0.00 | 20 | 1011.9 |
| 20260830231914 | 37 | 186 | 11.3 | 16.1 | 0.00 | 0.00 | 0.00 | 20 | 1011.9 |
| 20260830230712 | 37 | 144 | 4.8 | 11.3 | 0.00 | 0.00 | 0.00 | 20 | 1012.1 |
| 20260830230309 | 37 | 180 | 8.0 | 11.3 | 0.00 | 0.00 | 0.00 | 20 | 1012.1 |
| 20260830225907 | 37 | 193 | 6.4 | 9.7 | 0.00 | 0.00 | 0.00 | 20 | 1012.0 |
| 20260830225105 | 37 | 171 | 3.2 | 12.9 | 0.00 | 0.00 | 0.00 | 20 | 1012.3 |
| 20260830223901 | 36 | 148 | 6.4 | 20.9 | 0.00 | 0.00 | 0.00 | 20 | 1012.4 |
| 20260830223500 | 35 | 193 | 12.9 | 27.4 | 0.00 | 0.00 | 0.00 | 20 | 1012.5 |
| 20260830223059 | 36 | 150 | 14.5 | 25.7 | 0.00 | 0.00 | 0.00 | 20 | 1012.5 |
| 20260830222658 | 36 | 166 | 11.3 | 20.9 | 0.00 | 0.00 | 0.00 | 20 | 1012.5 |
| 20260830221855 | 35 | 141 | 11.3 | 17.7 | 0.00 | 0.00 | 0.00 | 20 | 1012.7 |
| 20260830221453 | 35 | 182 | 11.3 | 19.3 | 0.00 | 0.00 | 0.00 | 20 | 1012.7 |
| 20260830221052 | 35 | 123 | 14.5 | 17.7 | 0.00 | 0.00 | 0.00 | 20 | 1012.8 |